Date String (YYYY-MM-DD hh:mm:ss) UTC,Instrument flags,Ambient pressure (hPa),Sample flow (lpm),Bypass flow (lpm),Sample temperature (°C),Ambient temperature (°C),ASC tube jacket temperature (°C),LED temperature (°C),Box temperature (°C),Sample RH (%),Span deviation,Mass concentration (μg/m³),Mass concentration (μg/m³),Mass concentration (μg/m³)
DateTimeUTC,F1_M11,P_M11,Q1_M11,Q2_M11,T1_M11,T2_M11,T3_M11,T4_M11,T5_M11,U1_M11,ZSPAN_M11,X0_M11,X2_M11,X1_M11
2022-12-27 03:00:00,,0824.7,5.01,0.00,22.3,20.5,00.0,31.2,23.9,17.1,0000.0,0006.93,0003.77,0003.60
2022-12-27 03:01:00,,0824.7,5.02,0.00,22.2,20.4,00.0,31.2,23.8,17.3,0000.0,0006.57,0003.68,0003.52
2022-12-27 03:02:00,,0824.6,4.98,0.00,22.2,20.3,00.0,31.2,23.8,17.4,0000.0,0006.32,0003.59,0003.43
2022-12-27 03:03:00,,0824.6,4.98,0.00,22.1,20.3,00.0,31.2,23.8,17.7,0000.0,0006.20,0003.54,0003.39
2022-12-27 03:04:00,,0824.6,5.03,0.00,22.1,20.4,00.0,31.2,23.8,17.0,0000.0,0006.00,0003.42,0003.28
2022-12-27 03:05:00,,0824.4,5.04,0.00,22.1,20.5,00.0,31.1,23.8,16.3,0000.0,0005.50,0003.17,0003.01
2022-12-27 03:06:00,,0824.4,4.96,0.00,22.1,20.6,00.0,31.1,23.8,16.3,0000.0,0004.42,0002.74,0002.59
2022-12-27 03:07:00,,0824.4,4.99,0.00,22.1,20.6,00.0,31.1,23.8,16.3,0000.0,0003.19,0002.30,0002.18
2022-12-27 03:08:00,,0824.4,5.03,0.00,22.1,20.7,00.0,31.1,23.8,16.3,0000.0,0003.01,0002.09,0001.95
2022-12-27 03:09:00,,0824.4,5.01,0.00,22.1,20.8,00.0,31.1,23.8,16.3,0000.0,0002.79,0001.85,0001.71
2022-12-27 03:10:00,,0824.4,4.97,0.00,22.1,20.8,00.0,31.1,23.8,16.1,0000.0,0002.59,0001.64,0001.50
2022-12-27 03:11:00,,0824.5,4.98,0.00,22.1,20.8,00.0,31.1,23.8,16.2,0000.0,0001.50,0001.42,0001.29
2022-12-27 03:12:00,,0824.4,5.01,0.00,22.1,20.8,00.0,31.1,23.8,16.4,0000.0,0001.21,0001.14,0001.04
2022-12-27 03:13:00,,0824.4,5.02,0.00,22.1,20.8,00.0,31.1,23.8,16.3,0000.0,0000.89,0000.82,0000.75
2022-12-27 03:14:00,,0824.4,5.00,0.00,22.1,20.8,00.0,31.1,23.8,16.2,0000.0,0000.55,0000.45,0000.41
2022-12-27 03:15:00,,0824.4,4.97,0.00,22.1,20.8,00.0,31.1,23.9,16.1,0000.0,0000.36,0000.24,0000.19
2022-12-27 03:16:00,,0824.4,4.97,0.00,22.1,20.9,00.0,31.1,23.8,16.1,0000.0,0000.34,0000.23,0000.18
2022-12-27 03:17:00,,0824.4,5.02,0.00,22.1,20.9,00.0,31.1,23.9,16.2,0000.0,0000.36,0000.24,0000.18
2022-12-27 03:18:00,,0824.3,5.03,0.00,22.1,20.9,00.0,31.1,23.9,16.2,0000.0,0000.37,0000.24,0000.18
2022-12-27 03:19:00,,0824.4,5.01,0.00,22.1,20.9,00.0,31.0,23.9,15.8,0000.0,0000.35,0000.23,0000.18
2022-12-27 03:20:00,,0824.4,4.97,0.00,22.1,20.9,00.0,31.0,23.9,16.0,0000.0,0000.34,0000.23,0000.18
2022-12-27 03:21:00,,0824.3,4.97,0.00,22.2,20.9,00.0,31.0,23.9,16.2,0000.0,0000.34,0000.23,0000.18
2022-12-27 03:22:00,,0824.2,5.03,0.00,22.2,20.9,00.0,31.1,23.9,16.2,0000.0,0000.31,0000.21,0000.18
2022-12-27 03:23:00,,0824.3,5.02,0.00,22.2,20.9,00.0,31.1,23.9,16.1,0000.0,0000.31,0000.22,0000.18
2022-12-27 03:24:00,,0824.3,5.01,0.00,22.2,20.9,00.0,31.1,23.9,16.2,0000.0,0000.31,0000.22,0000.19
2022-12-27 03:25:00,,0824.3,4.98,0.00,22.2,20.9,00.0,31.0,23.9,16.0,0000.0,0000.28,0000.21,0000.18
2022-12-27 03:26:00,,0824.2,4.98,0.00,22.2,20.9,00.0,31.0,23.9,16.0,0000.0,0000.28,0000.21,0000.18
2022-12-27 03:27:00,,0824.3,5.01,0.00,22.2,20.9,00.0,31.0,23.9,16.0,0000.0,0000.28,0000.21,0000.18
2022-12-27 03:28:00,,0824.2,5.02,0.00,22.2,20.8,00.0,31.0,23.9,16.1,0000.0,0000.24,0000.19,0000.18
2022-12-27 03:29:00,,0824.1,5.01,0.00,22.2,20.8,00.0,31.0,23.9,16.1,0000.0,0000.26,0000.20,0000.19
2022-12-27 03:30:00,,0824.2,4.97,0.00,22.2,20.8,00.0,31.0,23.9,15.9,0000.0,0000.26,0000.20,0000.19
2022-12-27 03:31:00,,0824.2,4.98,0.00,22.2,20.8,00.0,31.0,23.9,16.1,0000.0,0000.32,0000.22,0000.19
2022-12-27 03:32:00,,0824.2,5.02,0.00,22.2,20.8,00.0,31.0,23.9,16.2,0000.0,0000.53,0000.26,0000.20
2022-12-27 03:33:00,,0824.3,5.03,0.00,22.2,20.8,00.0,31.0,23.9,16.0,0000.0,0000.61,0000.28,0000.20
2022-12-27 03:34:00,,0824.2,5.00,0.00,22.2,20.8,00.0,31.0,23.9,16.1,0000.0,0000.61,0000.27,0000.20
2022-12-27 03:35:00,,0824.1,4.96,0.00,22.2,20.8,00.0,31.0,23.9,16.1,0000.0,0000.61,0000.27,0000.20
2022-12-27 03:36:00,,0824.2,5.00,0.00,22.2,20.8,00.0,31.0,23.9,15.8,0000.0,0000.60,0000.27,0000.20
2022-12-27 03:37:00,,0824.2,5.03,0.00,22.2,20.8,00.0,31.0,23.9,15.9,0000.0,0000.61,0000.28,0000.20
2022-12-27 03:38:00,,0824.2,5.02,0.00,22.2,20.8,00.0,31.0,23.9,15.9,0000.0,0000.61,0000.28,0000.20
2022-12-27 03:39:00,,0824.0,4.99,0.00,22.1,20.8,00.0,31.0,23.9,16.0,0000.0,0000.61,0000.28,0000.20
2022-12-27 03:40:00,,0824.0,4.98,0.00,22.1,20.8,00.0,31.0,23.9,15.9,0000.0,0000.60,0000.27,0000.20
2022-12-27 03:41:00,,0824.0,4.99,0.00,22.2,20.8,00.0,31.0,23.9,15.9,0000.0,0000.60,0000.27,0000.20
2022-12-27 03:42:00,,0824.0,5.03,0.00,22.2,20.8,00.0,31.0,23.9,15.9,0000.0,0000.62,0000.28,0000.19
2022-12-27 03:43:00,,0824.1,5.02,0.00,22.1,20.8,00.0,31.0,23.9,15.9,0000.0,0000.44,0000.26,0000.18
2022-12-27 03:44:00,,0824.1,5.00,0.00,22.1,20.7,00.0,31.0,23.9,16.1,0000.0,0000.34,0000.24,0000.18
2022-12-27 03:45:00,,0823.9,4.99,0.00,22.1,20.7,00.0,31.0,23.8,16.2,0000.0,0000.34,0000.24,0000.18
2022-12-27 03:46:00,,0824.0,4.98,0.00,22.1,20.7,00.0,31.0,23.8,16.0,0000.0,0000.52,0000.24,0000.18
2022-12-27 03:47:00,,0823.9,5.03,0.00,22.1,20.7,00.0,31.0,23.8,15.8,0000.0,0001.12,0000.26,0000.18
2022-12-27 03:48:00,,0823.9,5.04,0.00,22.1,20.7,00.0,31.0,23.8,15.9,0000.0,0001.14,0000.26,0000.18
2022-12-27 03:49:00,,0823.9,4.98,0.00,22.1,20.7,00.0,31.0,23.9,15.9,0000.0,0001.15,0000.27,0000.17
2022-12-27 03:50:00,,0823.9,4.97,0.00,22.1,20.7,00.0,31.0,23.9,15.9,0000.0,0001.15,0000.27,0000.17
2022-12-27 03:51:00,,0823.9,5.01,0.00,22.1,20.7,00.0,31.0,23.9,15.6,0000.0,0001.15,0000.27,0000.17
2022-12-27 03:52:00,,0824.0,5.02,0.00,22.1,20.7,00.0,31.0,23.8,15.7,0000.0,0001.25,0000.27,0000.17
2022-12-27 03:53:00,,0823.9,5.02,0.00,22.1,20.7,00.0,31.0,23.8,15.8,0000.0,0001.19,0000.24,0000.18
2022-12-27 03:54:00,,0823.9,5.00,0.00,22.1,20.7,00.0,31.0,23.8,15.7,0000.0,0001.17,0000.23,0000.18
2022-12-27 03:55:00,,0824.0,4.97,0.00,22.1,20.6,00.0,31.0,23.7,15.7,0000.0,0001.17,0000.23,0000.18
2022-12-27 03:56:00,,0823.9,4.98,0.00,22.0,20.6,00.0,31.0,23.8,15.8,0000.0,0001.16,0000.23,0000.18
2022-12-27 03:57:00,,0823.7,5.02,0.00,22.1,20.6,00.0,31.0,23.8,15.8,0000.0,0000.91,0000.23,0000.18
2022-12-27 03:58:00,,0823.9,5.03,0.00,22.0,20.6,00.0,31.0,23.8,15.6,0000.0,0000.46,0000.24,0000.18
2022-12-27 03:59:00,,0823.9,5.00,0.00,22.0,20.6,00.0,31.0,23.7,15.9,0000.0,0000.46,0000.25,0000.19
